1383696033134,1.00355
1383696093134,0.986122
1383696153134,0.999281
1383696213134,0.996957
1383696273134,0.993574
1383696333134,0.990485
1383696393134,0.989870
1383696453134,0.992659
1383696513134,0.992504
1383696573134,0.993075
1383696633134,1.00559
1383696693134,0.992639
1383696753134,0.989016
1383696813134,0.987669
1383696873134,0.992406
1383696933134,0.992315
1383696993134,0.983522
1383697053134,0.992766
1383697113134,0.986484
1383697173134,0.992542
1383697233134,0.995451
1383697293134,0.989942
1383697353134,0.993527
1383697413134,0.993462
1383697473134,0.996758
1383697533134,0.995112
1383697593134,0.998938
1383697653134,0.989720
1383697713134,0.999610
1383697773134,0.998020
1383697833134,1.00904
1383697893134,1.00671
1383697953134,0.998641
1383698013134,0.999761
1383698073134,0.992516
1383698133134,0.993537
1383698193134,0.993169
1383698253134,0.985288
1383698313134,0.992201
1383698373134,0.988626
1383698433134,0.984404
1383698493134,0.985066
1383698553134,0.996825
1383698613134,0.986356
1383698673134,0.984420
1383698733134,0.988017
1383698793134,0.987718
1383698853134,0.987774
1383698913134,0.983496
1383698973134,0.980294
1383699033134,0.985156
1383699093134,0.987298
1383699153134,0.982238
1383699213134,0.988668
1383699273134,0.990840
1383699333134,0.991712
1383699393134,0.989332
1383699453134,0.993715
1383699513134,0.991901
1383699573134,0.996957
1383699633144,1.00210
1383699693144,0.988230
1383699753144,0.990584
1383699813144,0.997732
1383699873144,0.997296
1383699933144,0.994739
1383699993144,0.987842
1383700053144,0.997121
1383700113144,1.00271
1383700173144,1.00056
1383700233144,1.00222
1383700293144,0.998214
1383700353144,0.986250
1383700413144,0.989323
1383700473144,0.998568
1383700533144,0.998011
1383700593144,0.990801
1383700653144,0.997949
1383700713144,1.00001
1383700773144,0.989921
1383700833144,0.992476
1383700893144,0.993183
1383700953144,0.996980
1383701013144,1.01787
1383701073144,1.01692
1383701133144,1.02948
1383701193144,1.05735
1383701253144,1.06642
1383701313144,1.06817
1383701373144,1.05695
1383701433144,1.05211
1383701493144,1.03176
1383701553144,1.01245
1383701613144,1.00990
1383701673144,0.996853
1383701733144,0.992330
1383701793144,0.992238
1383701853144,0.994021
1383701913144,0.991902
1383701973144,0.989351
1383702033144,0.981148
1383702093144,0.982331
1383702153144,0.987271
1383702213144,0.996509
1383702273144,0.991422
1383702333144,1.00063
1383702393144,0.993339
1383702453144,0.991120
1383702513144,0.993055
1383702573144,0.991195
1383702633144,0.995482
1383702693144,0.997610
1383702753144,1.02500
1383702813144,1.06679
1383702873144,1.11710
1383702933144,1.08445
1383702993144,1.04485
1383703053144,1.01897
1383703113144,1.02148
1383703173144,1.01100
1383703233153,1.01309
1383703293153,0.997254
1383703353153,1.00016
1383703413153,1.00066
1383703473153,0.993758
1383703533153,0.993933
1383703593153,0.991486
1383703653153,0.994646
1383703713153,1.00247
1383703773153,0.996996
1383703833153,1.01255
1383703893153,1.00068
1383703953153,0.996655
1383704013153,1.00226
1383704073153,1.00647
1383704133153,1.00240
1383704193153,1.00540
1383704253153,1.02468
1383704313153,1.03071
1383704373153,1.02363
1383704433153,1.01910
1383704493153,1.01323
1383704553153,1.01776
1383704613153,1.02034
1383704673153,1.02296
1383704733153,1.03256
1383704793153,1.02978
1383704853153,1.04585
1383704913153,1.04617
1383704973153,1.04347
1383705033153,1.06342
1383705093153,1.05372
1383705153153,1.06855
1383705213153,1.07036
1383705273153,1.07601
1383705333153,1.09391
1383705393153,1.10669
1383705453153,1.10639
1383705513153,1.11039
1383705573153,1.13053
1383705633153,1.14018
1383705693153,1.15017
1383705753153,1.16354
1383705813153,1.15523
1383705873153,1.15524
1383705933153,1.14537
1383705993153,1.13793
1383706053153,1.12570
1383706113153,1.12608
1383706173153,1.12309
1383706233153,1.10159
1383706293153,1.10270
1383706353153,1.09400
1383706413153,1.08667
1383706473153,1.08136
1383706533153,1.06877
1383706593153,1.06420
1383706653153,1.06946
1383706713153,1.06364
1383706773153,1.06142
1383706833163,1.05049
1383706893163,1.05059
1383706953163,1.04369
1383707013163,1.04764
1383707073163,1.04338
1383707133163,1.03255
1383707193163,1.03856
1383707253163,1.04821
1383707313163,1.04896
1383707373163,1.02946
1383707433163,1.03807
1383707493163,1.03817
1383707553163,1.03066
1383707613163,1.03574
1383707673163,1.03065
1383707733163,1.03816
1383707793163,1.03860
1383707853163,1.04222
1383707913163,1.05227
1383707973163,1.05256
1383708033163,1.05221
1383708093163,1.04535
1383708153163,1.04715
1383708213163,1.03925
1383708273163,1.04674
1383708333163,1.04472
1383708393163,1.03554
1383708453163,1.03654
1383708513163,1.02818
1383708573163,1.02946
1383708633163,1.02673
1383708693163,1.02737
1383708753163,1.01027
1383708813163,1.01439
1383708873163,1.01468
1383708933163,1.01249
1383708993163,1.00447
1383709053163,1.00862
1383709113163,1.00441
1383709173163,1.00562
1383709233163,1.00546
1383709293163,0.994720
1383709353163,1.00140
1383709413163,1.00510
1383709473163,1.00159
1383709533163,1.00650
1383709593163,1.00518
1383709653163,1.00252
1383709713163,0.996060
1383709773163,0.994191
1383709833163,0.997838
1383709893163,0.993901
1383709953163,0.987073
1383710013163,0.982469
1383710073163,0.992387
1383710133163,0.988630
1383710193163,0.986399
1383710253163,0.986767
1383710313163,0.986380
1383710373163,0.986686
1383710433173,0.981887
1383710493173,0.985879
1383710553173,0.989629
1383710613173,0.987257
1383710673173,0.993476
1383710733173,0.994580
1383710793173,0.987194
1383710853173,0.986080
1383710913173,0.991903
1383710973173,0.993706
1383711033173,0.994066
1383711093173,0.989022
1383711153173,0.991368
1383711213173,0.988005
1383711273173,0.995907
1383711333173,0.990564
1383711393173,0.990562
1383711453173,1.00178
1383711513173,0.996101
1383711573173,0.992374
1383711633173,1.00521
1383711693173,0.994606
1383711753173,0.990530
1383711813173,0.988076
1383711873173,0.994487
1383711933173,0.985297
1383711993173,0.997593
1383712053173,0.996306
1383712113173,1.00350
1383712173173,0.991304
1383712233173,0.995098
1383712293173,1.00139
1383712353173,1.00094
1383712413173,0.989698
1383712473173,0.990791
1383712533173,1.00093
1383712593173,0.994336
1383712653173,0.993555
1383712713173,0.994440
1383712773173,0.992192
1383712833173,1.00681
1383712893173,1.00374
1383712953173,0.997982
1383713013173,0.991185
1383713073173,0.997780
1383713133173,0.988313
1383713193173,0.988140
1383713253173,0.985451
1383713313173,1.00088
1383713373173,0.995766
1383713433173,0.994167
1383713493173,0.998792
1383713553173,1.00043
1383713613173,1.00029
1383713673173,1.00379
1383713733173,1.00414
1383713793173,1.01479
1383713853173,1.00986
1383713913173,1.01489
1383713973173,1.01621
1383714033182,1.01921
1383714093182,1.01298
1383714153182,1.01165
1383714213182,1.01972
1383714273182,1.01290
1383714333182,1.00955
1383714393182,1.01796
1383714453182,1.01466
1383714513182,1.02127
1383714573182,1.01168
1383714633182,1.01749
1383714693182,1.01057
1383714753182,1.00584
1383714813182,1.00733
1383714873182,1.00607
1383714933182,0.996464
1383714993182,1.00865
1383715053182,1.00883
1383715113182,1.00571
1383715173182,1.00792
1383715233182,1.01271
1383715293182,1.00818
1383715353182,1.01168
1383715413182,1.01253
1383715473182,1.00622
1383715533182,1.02362
1383715593182,1.01791
1383715653182,1.01831
1383715713182,1.02232
1383715773182,1.00949
1383715833182,1.01338
1383715893182,1.00941
1383715953182,1.01569
1383716013182,1.01236
1383716073182,1.00475
1383716133182,1.01065
1383716193182,1.00757
1383716253182,1.00909
1383716313182,1.00349
1383716373182,1.00527
1383716433182,1.00386
1383716493182,0.998102
1383716553182,0.998361
1383716613182,1.00331
1383716673182,0.998852
1383716733182,0.995289
1383716793182,0.993835
1383716853182,0.998112
1383716913182,0.991669
1383716973182,0.997812
1383717033182,1.00243
1383717093182,0.994184
1383717153182,0.991888
1383717213182,1.00679
1383717273182,1.00259
1383717333182,0.993527
1383717393182,0.998665
1383717453182,0.992290
1383717513182,0.996469
1383717573182,1.00172
1383717633192,0.992438
1383717693192,1.00214
1383717753192,0.995442
1383717813192,0.988900
1383717873192,0.993459
1383717933192,0.992503
1383717993192,0.986004
1383718053192,0.992996
1383718113192,0.993722
1383718173192,0.992558
1383718233192,0.993377
1383718293192,0.994756
1383718353192,0.995491
1383718413192,0.995919
1383718473192,0.999946
1383718533192,0.989017
1383718593192,0.992877
1383718653192,0.992919
1383718713192,0.988302
1383718773192,0.992317
1383718833192,0.991309
1383718893192,0.985380
1383718953192,0.997695
1383719013192,0.994283
1383719073192,0.998041
1383719133192,0.991496
1383719193192,0.982799
1383719253192,0.985901
1383719313192,1.00105
1383719373192,0.984178
1383719433192,0.987957
1383719493192,0.982674
1383719553192,0.977541
1383719613192,0.985090
1383719673192,0.997924
1383719733192,0.994267
1383719793192,0.996509
1383719853192,1.00106
1383719913192,0.999059
1383719973192,0.994268
1383720033192,0.989959
1383720093192,0.981058
1383720153192,0.986799
1383720213192,0.988761
1383720273192,0.992305
1383720333192,0.990010
1383720393192,0.990627
1383720453192,0.986137
1383720513192,0.987882
1383720573192,0.984051
1383720633192,0.985718
1383720693192,0.981799
1383720753192,0.975979
1383720813192,0.973389
1383720873192,0.976243
1383720933192,0.983530
1383720993192,0.980311
1383721053192,0.982371
1383721113192,0.972638
1383721173192,0.976282
1383721233202,0.981157
1383721293202,0.978066
1383721353202,0.982652
1383721413202,0.986381
1383721473202,0.981041
1383721533202,0.977751
1383721593202,0.982147
1383721653202,0.973936
1383721713202,0.981235
1383721773202,0.974706
1383721833202,0.977456
1383721893202,0.975833
1383721953202,0.978757
1383722013202,0.972559
1383722073202,0.974628
1383722133202,0.970527
1383722193202,0.981361
1383722253202,0.983869
1383722313202,0.994875
1383722373202,0.991726
1383722433202,0.989603
1383722493202,0.990307
1383722553202,0.979819
1383722613202,0.988815
1383722673202,0.985012
1383722733202,0.983723
1383722793202,0.982809
1383722853202,0.984591
1383722913202,0.984211
1383722973202,0.969321
1383723033202,0.983542
1383723093202,0.978528
1383723153202,0.982030
1383723213202,0.974685
1383723273202,0.972104
1383723333202,0.977598
1383723393202,0.983506
1383723453202,0.974538
1383723513202,0.970012
1383723573202,0.970673
1383723633202,0.973921
1383723693202,0.967412
1383723753202,0.969346
1383723813202,0.974497
1383723873202,0.972750
1383723933202,0.975955
1383723993202,0.975729
1383724053202,0.976529
1383724113202,0.976945
1383724173202,0.972727
1383724233202,0.983630
1383724293202,0.982581
1383724353202,0.978060
1383724413202,0.975341
1383724473202,0.978494
1383724533202,0.990702
1383724593202,0.987719
1383724653202,0.990324
1383724713202,0.992702
1383724773202,0.996466
1383724833212,0.991817
1383724893212,0.995865
1383724953212,0.999624
1383725013212,0.993359
1383725073212,0.987066
1383725133212,1.00207
1383725193212,0.979343
1383725253212,0.983161
1383725313212,0.984925
1383725373212,0.990402
1383725433212,0.992095
1383725493212,0.979959
1383725553212,0.984825
1383725613212,0.982371
1383725673212,0.978882
1383725733212,0.982549
1383725793212,0.984506
1383725853212,0.980486
1383725913212,0.984439
1383725973212,0.981017
1383726033212,0.978810
1383726093212,0.976475
1383726153212,0.983650
1383726213212,0.980786
1383726273212,0.982019
1383726333212,0.973874
1383726393212,0.986149
1383726453212,0.974973
1383726513212,0.978360
1383726573212,0.982366
1383726633212,0.993753
1383726693212,0.996414
1383726753212,1.01771
1383726813212,1.02188
1383726873212,1.02496
1383726933212,1.03007
1383726993212,1.03407
1383727053212,1.03501
1383727113212,1.03808
1383727173212,1.04757
1383727233212,1.03621
1383727293212,1.03756
1383727353212,1.03414
1383727413212,1.02797
1383727473212,1.02093
1383727533212,1.02271
1383727593212,1.01947
1383727653212,1.02481
1383727713212,1.05193
1383727773212,1.06574
1383727833212,1.07391
1383727893212,1.09118
1383727953212,1.10454
1383728013212,1.13407
1383728073212,1.15749
1383728133212,1.16452
1383728193212,1.14318
1383728253212,1.10746
1383728313212,1.07461
1383728373212,1.05333
1383728433223,1.03950
1383728493223,1.02097
1383728553223,1.01749
1383728613223,1.01391
1383728673223,1.00534
1383728733223,1.00319
1383728793223,0.998791
1383728853223,1.00198
1383728913223,0.993371
1383728973223,0.983388
1383729033223,0.976822
1383729093223,0.985222
1383729153223,0.981905
1383729213223,0.976085
1383729273223,0.980913
1383729333223,0.980531
1383729393223,0.979175
1383729453223,0.976945
1383729513223,0.981270
1383729573223,0.974398
1383729633223,0.966004
1383729693223,0.967848
1383729753223,0.968051
1383729813223,0.974072
1383729873223,0.970101
1383729933223,0.975460
1383729993223,0.971989
1383730053223,0.971916
1383730113223,0.977413
1383730173223,0.969891
1383730233223,0.969018
1383730293223,0.973840
1383730353223,0.970952
1383730413223,0.977972
1383730473223,0.980399
1383730533223,0.976002
1383730593223,0.974555
1383730653223,0.979891
1383730713223,0.974461
1383730773223,0.983439
1383730833223,0.982031
1383730893223,0.983942
1383730953223,0.996699
1383731013223,1.00403
1383731073223,1.00994
1383731133223,1.02036
1383731193223,1.02600
1383731253223,1.01881
1383731313223,1.02383
1383731373223,1.02343
1383731433223,1.01795
1383731493223,1.01559
1383731553223,1.01921
1383731613223,1.01400
1383731673223,1.00402
1383731733223,1.01457
1383731793223,1.01520
1383731853223,1.01652
1383731913223,1.03087
1383731973223,1.06852
1383732033234,1.08840
1383732093234,1.07831
1383732153234,1.06121
1383732213234,1.02581
1383732273234,1.01247
1383732333234,1.00062
1383732393234,1.00087
1383732453234,0.996431
1383732513234,0.994123
1383732573234,0.986247
1383732633234,0.985239
1383732693234,0.988362
1383732753234,0.992472
1383732813234,0.992437
1383732873234,0.988748
1383732933234,0.977579
1383732993234,0.974472
1383733053234,0.976441
1383733113234,0.989917
1383733173234,0.982970
1383733233234,0.983693
1383733293234,0.992114
1383733353234,0.987800
1383733413234,0.979955
1383733473234,0.977686
1383733533234,0.973583
1383733593234,0.978399
1383733653234,0.977298
1383733713234,0.981998
1383733773234,0.990366
1383733833234,0.981600
1383733893234,0.986327
1383733953234,0.982171
1383734013234,0.986728
1383734073234,0.988794
1383734133234,0.989043
1383734193234,0.986148
1383734253234,0.988153
1383734313234,0.985828
1383734373234,0.982291
1383734433234,0.980125
1383734493234,0.989959
1383734553234,0.987632
1383734613234,0.994476
1383734673234,0.988673
1383734733234,0.980805
1383734793234,0.991600
1383734853234,0.990817
1383734913234,0.994473
1383734973234,0.991597
1383735033234,0.989959
1383735093234,0.990293
1383735153234,0.985094
1383735213234,0.977478
1383735273234,0.983956
1383735333234,0.993526
1383735393234,0.982540
1383735453234,0.990237
1383735513234,0.980745
1383735573234,0.988920
1383735633245,0.985135
1383735693245,0.984648
1383735753245,0.981779
1383735813245,0.981431
1383735873245,0.983525
1383735933245,0.989631
1383735993245,0.978903
1383736053245,0.973793
1383736113245,0.985238
1383736173245,0.981282
1383736233245,0.979911
1383736293245,0.988947
1383736353245,0.978349
1383736413245,0.970014
1383736473245,0.983927
1383736533245,0.989726
1383736593245,0.983467
1383736653245,0.974057
1383736713245,0.973064
1383736773245,0.972924
1383736833245,0.982114
1383736893245,0.971562
1383736953245,0.975797
1383737013245,0.978120
1383737073245,0.977765
1383737133245,0.982293
1383737193245,0.977614
1383737253245,0.974460
1383737313245,0.972242
1383737373245,0.973807
1383737433245,0.968082
1383737493245,0.971952
1383737553245,0.973968
1383737613245,0.969995
1383737673245,0.972495
1383737733245,0.971287
1383737793245,0.973715
1383737853245,0.980169
1383737913245,0.977298
1383737973245,0.977105
1383738033245,0.971606
1383738093245,0.973489
1383738153245,0.968218
1383738213245,0.976312
1383738273245,0.975526
1383738333245,0.971420
1383738393245,0.975092
1383738453245,0.970672
1383738513245,0.973132
1383738573245,0.980455
1383738633245,0.981496
1383738693245,0.992049
1383738753245,0.998143
1383738813245,0.999163
1383738873245,0.997974
1383738933245,0.997858
1383738993245,0.991967
1383739053245,1.00300
1383739113245,0.998007
1383739173245,0.988098
1383739233256,0.983860
1383739293256,0.991396
1383739353256,0.981317
1383739413256,0.985394
1383739473256,0.989253
1383739533256,0.992052
1383739593256,0.990363
1383739653256,0.997975
1383739713256,0.998427
1383739773256,0.995313
1383739833256,0.996056
1383739893256,1.00405
1383739953256,1.00404
1383740013256,0.995866
1383740073256,0.995110
1383740133256,1.00271
1383740193256,1.00951
1383740253256,1.00743
1383740313256,1.00975
1383740373256,1.00765
1383740433256,1.00800
1383740493256,1.00354
1383740553256,1.00694
1383740613256,1.01430
1383740673256,1.01465
1383740733256,1.01676
1383740793256,1.02449
1383740853256,1.02415
1383740913256,1.01991
1383740973256,1.02798
1383741033256,1.03124
1383741093256,1.03871
1383741153256,1.02036
1383741213256,1.03860
1383741273256,1.04306
1383741333256,1.05555
1383741393256,1.04997
1383741453256,1.04793
1383741513256,1.05001
1383741573256,1.04859
1383741633256,1.04139
1383741693256,1.04546
1383741753256,1.04784
1383741813256,1.04069
1383741873256,1.03983
1383741933256,1.02953
1383741993256,1.03136
1383742053256,1.01824
1383742113256,1.02612
1383742173256,1.02258
1383742233256,1.01693
1383742293256,1.01828
1383742353256,1.01712
1383742413256,1.01547
1383742473256,1.00850
1383742533256,1.01355
1383742593256,1.01947
1383742653256,1.00608
1383742713256,1.00774
1383742773256,1.00040
1383742833267,1.00576
1383742893267,1.00242
1383742953267,1.00095
1383743013267,1.00180
1383743073267,0.995271
1383743133267,0.996998
1383743193267,0.997715
1383743253267,1.00325
1383743313267,0.995198
1383743373267,0.998316
1383743433267,0.997500
1383743493267,0.996468
1383743553267,0.994649
1383743613267,0.990006
1383743673267,0.981051
1383743733267,0.988493
1383743793267,0.983058
1383743853267,0.989329
1383743913267,0.985595
1383743973267,0.990430
1383744033267,0.988621
1383744093267,0.987555
1383744153267,0.985446
1383744213267,0.987707
1383744273267,0.980933
1383744333267,0.980554
1383744393267,0.981608
1383744453267,0.980379
1383744513267,0.984425
1383744573267,0.984663
1383744633267,0.976110
1383744693267,0.978606
1383744753267,0.973752
1383744813267,0.978207
1383744873267,0.979866
1383744933267,0.982550
1383744993267,0.994040
1383745053267,0.994876
1383745113267,0.989404
1383745173267,0.988153
1383745233267,1.00124
1383745293267,1.00643
1383745353267,1.01961
1383745413267,1.05953
1383745473267,1.14739
1383745533267,1.22916
1383745593267,1.33457
1383745653267,1.42334
1383745713267,1.50574
1383745773267,1.49377
1383745833267,1.46967
1383745893267,1.54546
1383745953267,1.56324
1383746013267,1.47023
1383746073267,1.34468
1383746133267,1.21776
1383746193267,1.13504
1383746253267,1.07852
1383746313267,1.05849
1383746373267,1.03625
1383746433279,1.00749
1383746493279,1.00785
1383746553279,0.987249
1383746613279,0.976394
1383746673279,0.975214
1383746733279,0.973141
1383746793279,0.968646
1383746853279,0.973769
1383746913279,0.972171
1383746973279,0.959873
1383747033279,0.970418
1383747093279,0.964657
1383747153279,0.963016
1383747213279,0.974480
1383747273279,0.971635
1383747333278,0.979076
1383747393278,0.977609
1383747453278,0.977209
1383747513278,0.977024
1383747573278,0.974797
1383747633279,0.975179
1383747693279,0.980177
1383747753279,0.976842
1383747813279,0.981918
1383747873279,0.971559
1383747933279,0.963478
1383747993279,0.979762
1383748053279,0.968771
1383748113279,0.970153
1383748173279,0.962403
1383748233279,0.959107
1383748293279,0.970272
1383748353279,0.968751
1383748413279,0.973102
1383748473279,0.969064
1383748533279,0.961489
1383748593279,0.960446
1383748653279,0.957370
1383748713278,0.960934
1383748773278,0.962981
1383748833278,0.964044
1383748893278,0.967767
1383748953279,0.962599
1383749013279,0.969045
1383749073279,0.965291
1383749133279,0.971946
1383749193279,0.967165
1383749253279,0.968603
1383749313279,0.970117
1383749373279,0.959423
1383749433279,0.972326
1383749493279,0.964350
1383749553279,0.960398
1383749613279,0.974610
1383749673279,0.968248
1383749733279,0.963090
1383749793279,0.961602
1383749853279,0.967532
1383749913279,0.962775
1383749973279,0.967803
1383750033290,0.967068
1383750093290,0.964489
1383750153290,0.964692
1383750213290,0.960944
1383750273290,0.970605
1383750333290,0.968954
1383750393290,0.971620
1383750453290,0.972381
1383750513290,0.962869
1383750573290,0.966979
1383750633290,0.967527
1383750693290,0.973202
1383750753290,0.973460
1383750813290,0.969572
1383750873290,0.969592
1383750933290,0.961679
1383750993290,0.960732
1383751053290,0.964393
1383751113290,0.962085
1383751173290,0.957161
1383751233290,0.963433
1383751293290,0.967934
1383751353290,0.958940
1383751413290,0.957422
1383751473290,0.960306
1383751533290,0.962542
1383751593290,0.958624
1383751653290,0.961739
1383751713290,0.961968
1383751773290,0.955218
1383751833290,0.960733
1383751893290,0.961764
1383751953290,0.961615
1383752013290,0.964372
1383752073290,0.962044
1383752133290,0.963011
1383752193290,0.969080
1383752253290,0.955031
1383752313290,0.962281
1383752373290,0.966141
1383752433290,0.968604
1383752493290,0.964064
1383752553290,0.973432
1383752613290,0.970098
1383752673290,0.966014
1383752733290,0.958562
1383752793290,0.962544
1383752853290,0.967872
1383752913290,0.969244
1383752973290,0.966282
1383753033290,0.965367
1383753093290,0.961336
1383753153290,0.970193
1383753213290,0.971258
1383753273290,0.975254
1383753333290,0.958813
1383753393290,0.972014
1383753453290,0.961873
1383753513290,0.966481
1383753573290,0.965345
1383753633302,0.966558
1383753693302,0.965909
1383753753302,0.977027
1383753813302,0.965970
1383753873302,0.964644
1383753933302,0.963290
1383753993302,0.965113
1383754053302,0.967307
1383754113302,0.966716
1383754173302,0.968640
1383754233302,0.974840
1383754293301,0.977433
1383754353301,0.970705
1383754413301,0.968032
1383754473301,0.979415
1383754533302,0.973807
1383754593302,0.967405
1383754653302,0.969419
1383754713302,0.974466
1383754773302,0.965021
1383754833302,0.970615
1383754893302,0.977574
1383754953302,0.974480
1383755013302,0.971427
1383755073302,0.976466
1383755133302,0.976342
1383755193302,0.975595
1383755253302,0.973431
1383755313302,0.983277
1383755373302,0.970680
1383755433302,0.980314
1383755493302,0.972758
1383755553302,0.981132
1383755613302,0.973589
1383755673301,0.980271
1383755733301,0.982714
1383755793301,0.980440
1383755853302,0.984410
1383755913302,0.978311
1383755973302,0.985832
1383756033302,0.981706
1383756093302,0.986273
1383756153302,0.980949
1383756213302,0.988303
1383756273302,0.977248
1383756333302,0.985634
1383756393302,0.987566
1383756453302,0.982614
1383756513302,0.983574
1383756573302,0.979731
1383756633302,0.975555
1383756693302,0.983579
1383756753302,0.982495
1383756813302,0.980941
1383756873302,0.979465
1383756933302,0.988371
1383756993301,0.991424
1383757053301,0.983169
1383757113301,0.986856
1383757173301,0.992731
1383757233313,0.982674
1383757293313,0.979894
1383757353313,0.982339
1383757413313,0.984572
1383757473313,0.984141
1383757533313,0.991561
1383757593313,0.980354
1383757653313,0.980735
1383757713313,0.971160
1383757773313,0.975642
1383757833313,0.987241
1383757893313,0.979525
1383758433313,0.981934
1383758493313,0.967552
1383758553313,0.977271
1383758613313,0.970578
1383758673313,0.974276
1383758733313,0.970905
1383758793313,0.972092
1383758853313,0.980934
1383758913313,1.00439
1383758973313,1.00918
1383759033313,1.02520
1383759093313,1.04311
1383759153313,1.04792
1383759213313,1.06482
1383759273313,1.05536
1383759333313,1.07304
1383759393313,1.07310
1383759453313,1.07804
1383759513313,1.06978
1383759573313,1.06343
1383759633313,1.04987
1383759693313,1.04641
1383759753313,1.02974
1383759813313,1.02481
1383759873313,1.01985
1383759933313,1.02642